| time (UTC) | temp F | wind direction | speed MPH | gust MPH | rain 1hr in | rain 24hr in | rain mn in | humidity % | barometer mb |
| 20260506223059 | 69 | 215 | 2.0 | 6.0 | 0.00 | 0.00 | 0.00 | 69 | 1018.5 |
| 20260506221600 | 68 | 271 | 1.0 | 6.0 | 0.00 | 0.00 | 0.00 | 70 | 1018.8 |
| 20260506220059 | 68 | 237 | 3.0 | 12.0 | 0.00 | 0.00 | 0.00 | 71 | 1019.1 |
| 20260506214558 | 69 | 272 | 2.0 | 9.0 | 0.00 | 0.00 | 0.00 | 69 | 1019.1 |
| 20260506213131 | 69 | 288 | 1.0 | 7.0 | 0.00 | 0.00 | 0.00 | 69 | 1019.3 |
| 20260506211620 | 69 | 245 | 2.0 | 8.0 | 0.00 | 0.00 | 0.00 | 69 | 1019.3 |
| 20260506210103 | 69 | 292 | 1.0 | 4.0 | 0.00 | 0.00 | 0.00 | 69 | 1019.5 |
| 20260506204600 | 69 | 285 | 1.0 | 8.0 | 0.00 | 0.00 | 0.00 | 68 | 1019.5 |
| 20260506203103 | 69 | 245 | 1.0 | 7.0 | 0.00 | 0.00 | 0.00 | 69 | 1019.6 |
| 20260506201609 | 68 | 237 | 1.0 | 11.0 | 0.00 | 0.00 | 0.00 | 71 | 1019.7 |
| 20260506194619 | 67 | 234 | 1.0 | 8.0 | 0.00 | 0.00 | 0.00 | 71 | 1019.9 |
| 20260506193058 | 67 | 211 | 2.0 | 9.0 | 0.00 | 0.00 | 0.00 | 72 | 1019.9 |
| 20260506191600 | 67 | 173 | 2.0 | 11.0 | 0.00 | 0.00 | 0.00 | 72 | 1019.9 |
| 20260506190057 | 68 | 196 | 1.0 | 5.0 | 0.00 | 0.00 | 0.00 | 70 | 1019.9 |
| 20260506184609 | 68 | 296 | 1.0 | 4.0 | 0.00 | 0.00 | 0.00 | 71 | 1020.1 |
| 20260506183103 | 68 | 187 | 1.0 | 6.0 | 0.00 | 0.00 | 0.00 | 70 | 1020.1 |
| 20260506181605 | 68 | 163 | 0.0 | 7.0 | 0.00 | 0.00 | 0.00 | 71 | 1020.3 |
| 20260506174610 | 68 | 283 | 1.0 | 5.0 | 0.00 | 0.00 | 0.00 | 70 | 1020.2 |
| 20260506173110 | 67 | 0 | 0.0 | 3.0 | 0.00 | 0.00 | 0.00 | 72 | 1020.2 |
| 20260506171610 | 66 | 233 | 1.0 | 5.0 | 0.00 | 0.00 | 0.00 | 74 | 1020.1 |
| 20260506170114 | 66 | 195 | 0.0 | 3.0 | 0.00 | 0.00 | 0.00 | 72 | 1020.0 |
| 20260506164610 | 66 | 309 | 1.0 | 4.0 | 0.00 | 0.00 | 0.00 | 72 | 1020.0 |
| 20260506163113 | 65 | 188 | 0.0 | 8.0 | 0.00 | 0.00 | 0.00 | 73 | 1020.0 |
| 20260506161600 | 64 | 155 | 1.0 | 4.0 | 0.00 | 0.00 | 0.00 | 75 | 1020.0 |
| 20260506160119 | 63 | 151 | 1.0 | 5.0 | 0.00 | 0.00 | 0.00 | 75 | 1020.0 |
| 20260506154604 | 62 | 0 | 1.0 | 5.0 | 0.00 | 0.00 | 0.00 | 74 | 1019.8 |
| 20260506153057 | 62 | 73 | 0.0 | 3.0 | 0.00 | 0.00 | 0.00 | 75 | 1020.0 |
| 20260506151558 | 61 | 0 | 2.0 | 7.0 | 0.00 | 0.00 | 0.00 | 75 | 1019.8 |
| 20260506150057 | 60 | 89 | 1.0 | 6.0 | 0.00 | 0.00 | 0.00 | 77 | 1019.8 |
| 20260506144607 | 59 | 46 | 2.0 | 6.0 | 0.00 | 0.00 | 0.00 | 78 | 1019.7 |
| 20260506143109 | 57 | 85 | 2.0 | 4.0 | 0.00 | 0.00 | 0.00 | 81 | 1019.6 |
| 20260506141559 | 56 | 76 | 2.0 | 6.0 | 0.00 | 0.00 | 0.00 | 83 | 1019.5 |
| 20260506140106 | 54 | 74 | 2.0 | 5.0 | 0.00 | 0.00 | 0.00 | 86 | 1019.4 |
| 20260506134557 | 53 | 0 | 0.0 | 0.0 | 0.00 | 0.00 | 0.00 | 90 | 1019.5 |
| 20260506133058 | 52 | 0 | 0.0 | 0.0 | 0.00 | 0.00 | 0.00 | 90 | 1019.5 |
| 20260506131558 | 52 | 0 | 0.0 | 0.0 | 0.00 | 0.00 | 0.00 | 90 | 1019.3 |
| 20260506124556 | 53 | 0 | 0.0 | 0.0 | 0.00 | 0.00 | 0.00 | 88 | 1019.2 |
| 20260506123056 | 53 | 0 | 0.0 | 0.0 | 0.00 | 0.00 | 0.00 | 87 | 1019.1 |
| 20260506121559 | 54 | 0 | 0.0 | 0.0 | 0.00 | 0.00 | 0.00 | 86 | 1018.8 |
| 20260506120111 | 54 | 0 | 0.0 | 0.0 | 0.00 | 0.00 | 0.00 | 86 | 1018.6 |
| 20260506114557 | 55 | 0 | 0.0 | 2.0 | 0.00 | 0.00 | 0.00 | 86 | 1018.4 |
| 20260506113059 | 55 | 0 | 0.0 | 3.0 | 0.00 | 0.00 | 0.00 | 86 | 1018.6 |
| 20260506111557 | 55 | 77 | 1.0 | 5.0 | 0.00 | 0.00 | 0.00 | 86 | 1018.4 |
| 20260506110100 | 54 | 0 | 1.0 | 2.0 | 0.00 | 0.00 | 0.00 | 87 | 1018.6 |
| 20260506104600 | 54 | 70 | 1.0 | 3.0 | 0.00 | 0.00 | 0.00 | 87 | 1018.5 |
| 20260506103119 | 55 | 82 | 0.0 | 4.0 | 0.00 | 0.00 | 0.00 | 86 | 1018.4 |
| 20260506101556 | 55 | 71 | 1.0 | 5.0 | 0.00 | 0.00 | 0.00 | 87 | 1018.4 |
| 20260506100056 | 54 | 90 | 2.0 | 4.0 | 0.00 | 0.00 | 0.00 | 87 | 1018.4 |
| 20260506094605 | 55 | 92 | 1.0 | 4.0 | 0.00 | 0.00 | 0.00 | 88 | 1018.6 |
| 20260506093059 | 55 | 0 | 0.0 | 2.0 | 0.00 | 0.00 | 0.00 | 87 | 1018.6 |
| 20260506091607 | 55 | 0 | 0.0 | 3.0 | 0.00 | 0.00 | 0.00 | 87 | 1019.0 |
| 20260506090100 | 55 | 0 | 0.0 | 4.0 | 0.00 | 0.00 | 0.00 | 87 | 1018.7 |
| 20260506084615 | 56 | 94 | 2.0 | 7.0 | 0.00 | 0.00 | 0.00 | 87 | 1018.9 |
| 20260506083057 | 56 | 71 | 2.0 | 6.0 | 0.00 | 0.00 | 0.00 | 87 | 1018.9 |
| 20260506081607 | 56 | 101 | 2.0 | 8.0 | 0.00 | 0.00 | 0.00 | 87 | 1019.0 |
| 20260506073101 | 56 | 69 | 2.0 | 8.0 | 0.00 | 0.00 | 0.00 | 88 | 1018.9 |
| 20260506071558 | 56 | 77 | 4.0 | 8.0 | 0.00 | 0.00 | 0.00 | 88 | 1018.8 |
| 20260506061602 | 56 | 86 | 2.0 | 6.0 | 0.00 | 0.00 | 0.00 | 88 | 1018.2 |
| 20260506050118 | 57 | 58 | 2.0 | 5.0 | 0.00 | 0.00 | 0.00 | 88 | 1017.8 |
| 20260506044601 | 57 | 96 | 2.0 | 5.0 | 0.00 | 0.00 | 0.00 | 87 | 1017.7 |
| 20260506043115 | 57 | 83 | 3.0 | 6.0 | 0.00 | 0.00 | 0.00 | 88 | 1017.5 |
| 20260506041600 | 57 | 107 | 1.0 | 4.0 | 0.00 | 0.00 | 0.00 | 87 | 1017.4 |
| 20260506040110 | 57 | 128 | 1.0 | 3.0 | 0.00 | 0.00 | 0.00 | 87 | 1017.1 |
| 20260506034606 | 58 | 131 | 1.0 | 4.0 | 0.00 | 0.00 | 0.00 | 86 | 1016.8 |
| 20260506033059 | 58 | 175 | 0.0 | 2.0 | 0.00 | 0.00 | 0.00 | 85 | 1016.5 |
| 20260506031600 | 59 | 165 | 0.0 | 4.0 | 0.00 | 0.00 | 0.00 | 83 | 1016.5 |
| 20260506024602 | 60 | 184 | 1.0 | 3.0 | 0.00 | 0.00 | 0.00 | 79 | 1015.9 |
| 20260506023100 | 61 | 0 | 0.0 | 2.0 | 0.00 | 0.00 | 0.00 | 78 | 1015.6 |
| 20260506021605 | 62 | 0 | 0.0 | 3.0 | 0.00 | 0.00 | 0.00 | 76 | 1015.5 |
| 20260506020059 | 63 | 284 | 0.0 | 3.0 | 0.00 | 0.00 | 0.00 | 74 | 1015.3 |
| 20260506014601 | 63 | 285 | 0.0 | 4.0 | 0.00 | 0.00 | 0.00 | 74 | 1015.2 |
| 20260506013106 | 63 | 0 | 0.0 | 6.0 | 0.00 | 0.00 | 0.00 | 75 | 1015.2 |
| 20260506011607 | 63 | 281 | 1.0 | 8.0 | 0.00 | 0.00 | 0.00 | 75 | 1015.1 |
| 20260506010058 | 64 | 298 | 0.0 | 9.0 | 0.00 | 0.00 | 0.00 | 75 | 1015.2 |
| 20260506004558 | 64 | 288 | 1.0 | 5.0 | 0.00 | 0.00 | 0.00 | 75 | 1015.2 |
| 20260506003059 | 64 | 257 | 1.0 | 10.0 | 0.00 | 0.00 | 0.00 | 76 | 1015.6 |
| 20260506001604 | 63 | 293 | 1.0 | 10.0 | 0.00 | 0.00 | 0.00 | 75 | 1015.6 |
| 20260506000059 | 64 | 278 | 2.0 | 4.0 | 0.00 | 0.00 | 0.00 | 73 | 1015.4 |
| 20260505234609 | 65 | 157 | 1.0 | 8.0 | 0.00 | 0.00 | 0.00 | 72 | 1015.4 |
| 20260505233059 | 66 | 290 | 2.0 | 7.0 | 0.00 | 0.00 | 0.00 | 72 | 1015.4 |
| 20260505231608 | 67 | 0 | 1.0 | 9.0 | 0.00 | 0.00 | 0.00 | 70 | 1015.3 |
| 20260505230058 | 67 | 280 | 1.0 | 6.0 | 0.00 | 0.00 | 0.00 | 70 | 1015.3 |
| 20260505224600 | 66 | 272 | 2.0 | 9.0 | 0.00 | 0.00 | 0.00 | 71 | 1015.5 |